Zurück zum Katalog

BREEZE-M DEB

AktivUNKNOWN
NORAD 38922·DEBRIS·🇷🇺 Russia

Gestartet Aug 6, 2012 von Baikonur Cosmodrome

Loading…

Nächste Überflüge (nächste 24 Stunden)

TLE

AktuellSource: Space-Track

Epoche: Sep 14, 2026, 13:50 UTC

1 38922U 12044BF  26257.57676190  .00023891  50468-5  37037-3 0  9992
2 38922  50.0181  31.7631 1380191 317.4786  32.6828 12.86071046575855

Verfolge BREEZE-M DEB in Echtzeit mit AllMySat

Download on the App Store